Location: Huntsville
(41.2590°N, 111.7678°W)
Time: 07:51:06
(UTC+00:00)

Vanguard 3 - Pass Details

Date: 18 June 2021
Orbit: 508 x 3261 km, 33.4° (Epoch: 29 July)

Event Time Altitude Azimuth Distance (km) Brightness Sun altitude
Rises 20:58:16 0° 262° (W) 3,868 11.0 64.1°
Reaches altitude 10° 21:01:33 10° 244° (WSW) 3,295 10.8 63.6°
Maximum altitude 21:07:07 19° 203° (SSW) 3,277 10.9 62.7°
Drops below altitude 10° 21:14:45 10° 165° (SSE) 4,730 11.3 61.5°
Sets 21:21:03 0° 151° (SSE) 6,288 11.7 60.5°
